This is the latest recevied weather packets stored in our database for station/object S53BL-10. If no packets are shown the sender has not sent any weather packets the latest 10 day(s).
| Time | Temp. | Humidity | Pressure | Rain* | Wind** | Luminosity | Snow |
|---|---|---|---|---|---|---|---|
| 1778097869 | 13.89° C | 94% | 1008.6 hPa | - | - | - | - |
| 1778096969 | 13.89° C | 95% | 1008.3 hPa | - | - | - | - |
| 1778096068 | 13.89° C | 97% | 1008.3 hPa | - | - | - | - |
| 1778095167 | 13.89° C | 99% | 1008.2 hPa | - | - | - | - |
| 1778094266 | 14.44° C | 94% | 1008 hPa | - | - | - | - |
| 1778093365 | 14.44° C | 93% | 1008.1 hPa | - | - | - | - |
| 1778092465 | 15° C | 88% | 1007.8 hPa | - | - | - | - |
| 1778091564 | 15° C | 87% | 1007.6 hPa | - | - | - | - |
| 1778090663 | 15° C | 87% | 1007.5 hPa | - | - | - | - |
| 1778089762 | 15.56° C | 85% | 1007.4 hPa | - | - | - | - |
| 1778088861 | 15.56° C | 84% | 1007.4 hPa | - | - | - | - |
| 1778087960 | 16.11° C | 81% | 1007.4 hPa | - | - | - | - |
| 1778087059 | 16.67° C | 84% | 1007.5 hPa | - | - | - | - |
| 1778086158 | 16.67° C | 86% | 1007.6 hPa | - | - | - | - |
| 1778085257 | 16.11° C | 86% | 1007.5 hPa | - | - | - | - |
| 1778084356 | 16.11° C | 85% | 1007.7 hPa | - | - | - | - |
| 1778083456 | 16.11° C | 85% | 1007.9 hPa | - | - | - | - |
| 1778082555 | 16.11° C | 86% | 1007.8 hPa | - | - | - | - |
| 1778081654 | 16.11° C | 90% | 1008 hPa | - | - | - | - |
| 1778080753 | 15° C | 90% | 1008.3 hPa | - | - | - | - |
| 1778079853 | 15.56° C | 92% | 1008.2 hPa | - | - | - | - |
| 1778078952 | 15.56° C | 96% | 1008.2 hPa | - | - | - | - |
| 1778078051 | 15.56° C | 100% | 1008.3 hPa | - | - | - | - |
| 1778077150 | 15° C | 100% | 1008.3 hPa | - | - | - | - |
| 1778076250 | 14.44° C | 100% | 1008.4 hPa | - | - | - | - |
* Rain since midnight (hover to see other rain measurements)
** Current wind speed in m/s (hover to see current wind gust speed)